sat.trackr.live / text

‹ back to catalog

STARLINK-32704

NORAD 62826 · 2025-018W

PAYLOAD ACTIVE UNKNOWN

§ Identity

Operator
Country
US
Launch date
2025-01-24
Launch site
AFWTR
Launch vehicle
Mass (kg)
RCS (m²)

Purposes: comms

External: N2YO · Heavens-Above · Gunter

§ Orbital elements

Epoch: 2026-09-21T21:22:30.470880Z

Period
92.43 min
Inclination
53.1466°
Eccentricity
0.0002841
Mean motion
15.57935313 rev/d
Perigee alt
391.7 km
Apogee alt
395.6 km
Semi-major
6,771.8 km
B*
1.5712e-3
RAAN
102.7834°
Arg perigee
148.5401°
Mean anomaly
211.5782°
Rev number
9,342

§ Raw data

STARLINK-327041 62826U 25018W   26264.89063045  .00120925  00000+0  15712-2 0  99912 62826  53.1466 102.7834 0002841 148.5401 211.5782 15.57935313 93420

JSON: /api/v1/satellites/62826 · /tle

For live sub-satellite position, see the globe view (requires WebGL).

§ Visibility from observer

Set your observer location to see the next 7 days of passes ≥ 10°. The values pass through the URL so the page stays shareable.

No JS? Fill the form by hand. The geolocation button needs JavaScript.